[Iaude] MPEC J97: 2024 JJ2 [a=1.48,e=0.33,i=17.1,H=24.1]

mpec at cfa.harvard.edu mpec at cfa.harvard.edu
Mon May 6 07:08:12 EDT 2024


M.P.E.C. 2024-J97                                   Issued 2024 May 6, 11:06 UT

     The Minor Planet Electronic Circulars contain information on unusual
         minor planets, routine data on comets and natural satellites,
         and occasional editorial announcements.  They are published
    on behalf of Division F of the International Astronomical Union by the
          Minor Planet Center, Smithsonian Astrophysical Observatory,
                          Cambridge, MA 02138, U.S.A.
			  
             Prepared using the Tamkin Foundation Computer Network

                              MPC at CFA.HARVARD.EDU
            URL https://www.minorplanetcenter.net/    ISSN 1523-6714

                                    2024 JJ2                                    


Observations:
     K24J02J* C2024 05 03.41016314 19 07.817-17 27 17.38         20.92wXEJ097F51
     K24J02J  C2024 05 03.42198314 19 08.078-17 25 59.33         20.56wXEJ097F51
     K24J02J  C2024 05 03.43379314 19 08.362-17 24 41.12         20.94wXEJ097F51
     K24J02J  C2024 05 03.51070314 19 10.301-17 16 07.87         21.02GVEJ097F52
     K24J02J  C2024 05 03.51152814 19 10.343-17 16 01.97         20.46GVEJ097F52
     K24J02J KC2024 05 04.19537314 19 47.24 -15 58 44.0          20.7 GXEJ097858
     K24J02J KC2024 05 04.20590414 19 47.57 -15 57 30.7          20.8 GXEJ097858
     K24J02J KC2024 05 04.32515714 19 51.272-15 43 37.09               VEJ097I52
     K24J02J KC2024 05 04.32682714 19 51.330-15 43 25.61         21.01GVEJ097I52
     K24J02J KC2024 05 04.32850114 19 51.337-15 43 14.23         20.76GVEJ097I52
     K24J02J KC2024 05 04.33087014 19 51.456-15 42 57.38         19.96GVEJ097I52
     K24J02J !C2024 05 06.28673 14 21 36.59 -11 40 23.5          20.0 GVEJ097673
     K24J02J !C2024 05 06.30073 14 21 37.11 -11 38 32.6                VEJ097673
     K24J02J KC2024 05 06.37756314 21 39.380-11 28 21.79         19.70GVEJ097I52
     K24J02J KC2024 05 06.38307314 21 39.611-11 27 37.51         20.66GVEJ097I52
     K24J02J KC2024 05 06.38858314 21 39.809-11 26 54.31         20.64GVEJ097I52
     K24J02J KC2024 05 06.39063014 21 39.841-11 26 37.93         19.76GVEJ097I52

Observer details:
673 Table Mountain Observatory, Wrightwood.  Observer J. Pittichova.  1.0-m
    f/15 reflector + CCD.
858 Tebbutt Observatory, Edgewood.  Observer F. B. Zoltowski.  0.51-m f/8.1
    Schmidt-Cassegrain + CCD.
F51 Pan-STARRS 1, Haleakala.  Observers J. Herman, T. Lowe, P. Minguez, A.
    Schultz, I. Smith.  Measurers K. Chambers, T. de Boer, J. Fairlamb, H.
    Gao, M. Huber, C.-C. Lin, E. Magnier, Y. Ramanjooloo, R. Wainscoat, R.
    Weryk.  1.8-m Ritchey-Chretien + CCD.
F52 Pan-STARRS 2, Haleakala.  Observers J. Herman, T. Lowe, P. Minguez, A.
    Schultz, I. Smith.  Measurers K. Chambers, T. de Boer, J. Fairlamb, H.
    Gao, M. Huber, C.-C. Lin, E. Magnier, Y. Ramanjooloo, R. Wainscoat, R.
    Weryk.  1.8-m Ritchey-Chretien + CCD.
I52 Steward Observatory, Mt. Lemmon Station.  Observers V. F. Carvajal, R. A.
    Kowalski.  Measurers T. Beuden, V. F. Carvajal, D. Fay, J. B. Fazekas, D.
    C. Fuls, A. R. Gibbs, A. D. Grauer, H. Groeller, J. K. Hogan, R. A.
    Kowalski, S. M. Larson, G. J. Leonard, D. Rankin, R. L. Seaman, F. C.
    Shelly, K. W. Wierzchos.  1.0-m prime focus + CCD.

Orbital elements:
2024 JJ2                                                 Earth MOID = 0.1052 AU
Epoch 2024 Mar. 31.0 TT = JDT 2460400.5                 Veres                   
M 307.10440              (2000.0)            P               Q                  
n   0.54502445     Peri.   64.45706     +0.28739290     +0.93581000             
a   1.4843127      Node   223.91034     -0.94995724     +0.25125001             
e   0.3348337      Incl.   17.11674     -0.12241965     +0.24725106             
P   1.81           H   24.13          G   0.15           U   9                  
Residuals in seconds of arc
240503 F51  0.1+  0.0     240504 858  0.1-  0.1-    240506 673  0.3+  0.1+
240503 F51  0.1-  0.1-    240504 I52  0.0   0.3+    240506 I52  0.1+  0.1+
240503 F51  0.0   0.2-    240504 I52  0.2+  0.1+    240506 I52  0.5+  0.5+
240503 F52  0.0   0.1-    240504 I52  0.4-  0.3-    240506 I52  0.2+  0.2-
240503 F52  0.2+  0.2+    240504 I52  0.3+  0.1-    240506 I52  0.5-  0.2-
240504 858  0.2-  0.6-    240506 673  0.3-  0.4-

Ephemeris:
2024 JJ2                 a,e,i = 1.48, 0.33, 17                  q = 0.9873
Date    TT    R. A. (2000) Decl.     Delta      r    Elong.  Phase     V
2024 04 06    14 05 04.7 -39 17 42   0.3415  1.2927   144.0    27.0    23.6
...
2024 04 21    14 11 54.1 -32 45 41   0.2262  1.2184   158.7    17.4    22.2
...
2024 04 29    14 16 03.8 -24 27 55   0.1755  1.1801   169.7     8.8    21.3
...
2024 05 05    14 20 26.5 -14 22 32   0.1448  1.1524   172.9     6.2    20.7
2024 05 06    14 21 20.2 -12 17 05   0.1405  1.1479   171.3     7.6    20.7
2024 05 07    14 22 17.5 -10 04 07   0.1364  1.1434   169.3     9.4    20.7
...
2024 05 13    14 29 33.3 +05 45 12   0.1186  1.1173   152.9    24.4    20.9
...
2024 05 21    14 44 52.8 +30 23 22   0.1147  1.0849   126.9    48.2    21.4
...
2024 06 05    15 41 45.3 +63 28 43   0.1550  1.0340    92.9    78.5    22.9

M. P. C. Staff               (C) Copyright 2024 MPC           M.P.E.C. 2024-J97





More information about the Iaude mailing list